Погода в Поросозере

Россия / Республика Карелия     62°43′08″N   32°43′55″E
темп.,
°C
ветер,
м/с
пор.,
м/с
влажн.,
%
обл.,
%
осадки,
мм/ч
давл.,
гПа
погр.,
м
17 мая, пн
пн1700:00+10в228699 0.0 101125
03:00+10юв2296100 0.0 101250
06:00+12ююв24885 0.0 1012134
09:00+17ю236456 0.0 1013658
12:00+21ююв33505 0.1 10131496
15:00+23ю4540100 0.2 10132414
18:00+20юв4655100 0.0 10121172
21:00+16вюв41077100 0.0 1013371
18 мая, вт
вт1800:00+14вюв4147899 0.0 1012469
03:00+13вюв41482100 0.0 1010452
06:00+13юв4138877 0.8 1009580
09:00+17юв5978100 0.8 1008515
12:00+22ююв595842 0.0 10071015
15:00+26ю6114392 0.0 10062294
18:00+25ю41048100 0.0 10052051
21:00+20юв3767100 0.0 1005189
19 мая, ср
ср1900:00+17ююв11805 0.5 100613
03:00+15юв21186100 0.5 1006265
06:00+16юв388218 0.0 1006252
09:00+21юв4861100 0.0 1005721
12:00+26ююв7193715 0.0 10043070
15:00+26ююз71739100 0.0 10043439
18:00+23ю71648100 0.2 10042260
21:00+17вюв348092 1.1 1004112
20 мая, чт
чт2000:00+15ю51192100 0.6 1004619
03:00+14ююв4109634 0.7 1005419
06:00+14ю3109378 0.0 1006434
09:00+15ююз3987100 0.0 1007816
12:00+16ююз3776100 0.1 10071000
15:00+17юз356698 0.1 10081092
18:00+17зсз326158 0.0 1007894
21:00+13сз367030 0.0 1007309
21 мая, пт
пт2100:00+10с3880100 0.1 1007315
03:00+11с3877100 0.1 1007399
06:00+10с4985100 0.4 1006454
09:00+9ссв41180100 0.4 1004445
12:00+8ссв51295100 5.4 1003504
15:00+9ссв41096100 6.3 1001421
18:00+10ссв4996100 1.7 1000396
21:00+9ссв4109582 2.2 999308